Location: San Antonio
(29.4240°N, 98.4930°W)
Time: 02:00:03
(UTC-05:00)

ISS - Pass Details

Date: 20 June 2024
Orbit: 410 x 424 km, 51.6° (Epoch: 13 July)

Event Time Altitude Azimuth Distance (km) Brightness Sun altitude
Exits shadow 05:13:58 36° 213° (SSW) 674 -3.2 -15.5°
Maximum altitude 05:15:12 78° 133° (SE) 424 -3.8 -15.3°
Drops below altitude 10° 05:18:32 10° 46° (NE) 1,488 0.4 -14.8°
Sets 05:20:38 0° 45° (NE) 2,357 1.9 -14.4°
